DW4236 Weather Reports


time (UTC)temp
C
wind
direction
speed
KPH
gust
KPH
rain 1hr
cm
rain 24hr
cm
rain mn
cm
humidity
%
barometer
mb
20260903005605 18 213 1.6 4.8 0.00 1.22 1.22 93 1020.5
20260903005105 18 213 1.6 4.8 0.00 1.22 1.22 93 1020.4
20260903004604 18 169 0.0 0.0 0.00 1.22 1.22 93 1020.3
20260903004104 18 169 0.0 3.2 0.00 1.22 1.22 93 1020.3
20260903003604 18 169 0.0 1.6 0.00 1.22 1.22 93 1020.3
20260903003104 18 169 0.0 3.2 0.00 1.22 1.22 94 1020.2
20260903002104 18 161 4.8 12.9 0.00 1.22 1.22 94 1020.3
20260903001604 18 205 0.0 1.6 0.00 1.22 1.22 94 1020.4
20260903001104 18 205 1.6 4.8 0.00 1.22 1.22 94 1020.5
20260903000604 18 197 0.0 3.2 0.00 1.22 1.22 94 1020.3
20260902235604 18 197 0.0 0.0 0.00 1.22 1.22 94 1020.3
20260902235104 18 197 1.6 4.8 0.00 1.22 1.22 94 1020.2
20260902234604 18 159 0.0 0.0 0.00 1.22 1.22 94 1020.1
20260902234103 18 159 0.0 0.0 0.00 1.22 1.22 94 1019.8
20260902233604 18 159 0.0 0.0 0.00 1.22 1.22 93 1019.7
20260902233105 18 159 0.0 4.8 0.00 1.22 1.22 93 1019.7
20260902232103 18 159 0.0 0.0 0.00 1.22 1.22 94 1020.1
20260902231604 18 159 0.0 8.0 0.00 1.22 1.22 93 1020.3
20260902231104 18 168 3.2 11.3 0.00 1.22 1.22 94 1020.0
20260902230604 18 157 4.8 11.3 0.00 1.22 1.22 94 1020.1
20260902230104 18 184 1.6 12.9 0.00 1.22 1.22 93 1020.2
20260902225604 18 155 4.8 16.1 0.00 1.22 1.22 94 1020.2
20260902225104 18 159 6.4 19.3 0.00 1.22 1.22 94 1020.1
20260902224103 18 159 1.6 4.8 0.00 1.22 1.22 94 1020.5
20260902223604 18 178 3.2 12.9 0.00 1.22 1.22 94 1020.7
20260902223104 18 160 4.8 12.9 0.00 1.22 1.22 94 1020.5
20260902222604 19 158 4.8 19.3 0.00 1.22 1.22 94 1020.6
20260902221604 19 139 3.2 4.8 0.00 1.22 1.22 94 1020.7
20260902221104 19 164 3.2 9.7 0.00 1.22 1.22 94 1021.0
20260902220604 19 138 1.6 14.5 0.00 1.22 1.22 94 1021.1
20260902215605 20 152 3.2 4.8 0.00 1.22 1.22 94 1021.2
20260902215105 20 200 0.0 0.0 0.00 1.22 1.22 94 1021.2
20260902214603 20 200 0.0 1.6 0.00 1.22 1.22 94 1021.2
20260902214105 20 200 0.0 1.6 0.00 1.22 1.22 94 1021.1
20260902213603 20 200 0.0 1.6 0.00 1.22 1.22 94 1020.9
20260902213104 20 200 0.0 0.0 0.00 1.22 1.22 94 1020.8
20260902212604 20 201 0.0 0.0 0.00 1.22 1.22 94 1020.6
20260902212105 20 201 0.0 3.2 0.00 1.22 1.22 94 1020.5
20260902211603 20 201 0.0 3.2 0.00 1.22 1.22 94 1020.4
20260902211104 20 203 0.0 4.8 0.00 1.22 1.22 94 1020.4
20260902210604 20 192 0.0 3.2 0.00 1.22 1.22 94 1020.5
20260902210104 20 162 0.0 3.2 0.00 1.22 1.22 94 1020.6
20260902205604 20 162 0.0 1.6 0.00 1.22 1.22 94 1020.5
20260902204103 20 162 0.0 3.2 0.00 1.22 1.22 94 1020.5
20260902203604 20 162 1.6 4.8 0.00 1.22 1.22 94 1020.7
20260902203104 20 162 3.2 4.8 0.00 1.22 1.22 94 1020.6
20260902202604 20 155 3.2 4.8 0.00 1.22 1.22 94 1020.6
20260902201604 19 148 1.6 4.8 0.00 1.22 1.22 95 1020.7
20260902201104 20 148 3.2 4.8 0.00 1.22 1.22 95 1020.7
20260902200604 20 155 0.0 0.0 0.00 1.22 1.22 95 1020.6
20260902200103 19 155 0.0 0.0 0.00 1.22 1.22 95 1020.6
20260902195603 19 155 0.0 0.0 0.03 1.22 1.22 95 1020.7
20260902195104 19 155 0.0 1.6 0.03 1.22 1.22 95 1020.7
20260902194603 19 155 0.0 3.2 0.03 1.22 1.22 95 1020.9
20260902194105 19 155 0.0 3.2 0.03 1.22 1.22 95 1020.9
20260902193604 19 155 0.0 0.0 0.05 1.22 1.22 95 1020.9
20260902193104 19 155 0.0 0.0 0.08 1.22 1.22 95 1020.9
20260902192603 19 201 0.0 1.6 0.08 1.22 1.22 95 1021.0
20260902192105 19 201 0.0 0.0 0.13 1.22 1.22 95 1021.0
20260902191604 18 201 1.6 3.2 0.18 1.22 1.22 95 1021.1
20260902191104 18 201 0.0 1.6 0.25 1.22 1.22 95 1021.3
20260902185603 18 201 0.0 0.0 0.43 1.19 1.19 95 1021.3
20260902184603 18 201 0.0 3.2 0.58 1.19 1.19 95 1021.4
20260902184104 18 201 0.0 1.6 0.86 1.19 1.19 95 1021.5
20260902183603 18 129 1.6 4.8 1.09 1.17 1.17 94 1021.6
20260902183104 18 128 0.0 1.6 1.14 1.14 1.14 94 1022.0
20260902182605 18 128 1.6 4.8 1.14 1.14 1.14 94 1021.9
20260902182104 18 161 1.6 4.8 1.09 1.09 1.09 94 1021.9
20260902181104 18 177 1.6 4.8 0.97 0.97 0.97 93 1022.1
20260902180604 18 198 3.2 4.8 0.94 0.94 0.94 93 1022.5
20260902180104 18 319 0.0 0.0 0.86 0.86 0.86 92 1022.9
20260902175604 18 319 0.0 1.6 0.76 0.76 0.76 92 1022.9
20260902174604 18 97 3.2 4.8 0.61 0.61 0.61 91 1022.8
20260902174104 19 145 0.0 3.2 0.33 0.33 0.33 91 1022.5
20260902173603 19 145 0.0 0.0 0.08 0.08 0.08 90 1022.5
20260902173103 19 145 0.0 0.0 0.00 0.00 0.00 90 1022.4
20260902172104 19 144 0.0 3.2 0.00 0.00 0.00 90 1021.9
20260902171605 19 144 1.6 4.8 0.00 0.00 0.00 90 1021.9
20260902170103 18 185 0.0 3.2 0.00 0.00 0.00 90 1021.8
20260902165104 18 185 0.0 0.0 0.00 0.00 0.00 90 1022.0
20260902164604 18 185 0.0 0.0 0.00 0.00 0.00 90 1022.0
20260902164105 18 185 1.6 4.8 0.00 0.00 0.00 90 1022.0
20260902163605 18 188 0.0 0.0 0.00 0.00 0.00 90 1022.1
20260902163104 18 188 0.0 0.0 0.00 0.00 0.00 90 1022.1
20260902162605 18 188 0.0 3.2 0.00 0.00 0.00 90 1022.2
20260902162106 18 172 0.0 1.6 0.00 0.00 0.00 90 1022.1
20260902161606 18 174 0.0 4.8 0.00 0.00 0.00 90 1022.1
20260902161105 18 183 3.2 9.7 0.00 0.00 0.00 90 1022.2
20260902160605 18 178 1.6 4.8 0.00 0.00 0.00 90 1022.2
20260902160105 18 178 0.0 4.8 0.00 0.00 0.00 90 1022.2
20260902155605 18 181 3.2 9.7 0.00 0.00 0.00 90 1022.1
20260902155106 18 166 4.8 9.7 0.00 0.00 0.00 90 1022.0
20260902154605 18 155 1.6 4.8 0.00 0.00 0.00 90 1022.0
20260902154105 18 169 3.2 9.7 0.00 0.00 0.00 90 1022.0
20260902153606 18 160 1.6 4.8 0.00 0.00 0.00 90 1021.9
20260902152105 18 170 0.0 4.8 0.00 0.00 0.00 90 1022.0
20260902151105 18 172 3.2 4.8 0.00 0.03 0.00 90 1022.2
20260902150605 18 149 3.2 4.8 0.00 0.03 0.00 89 1022.3
20260902150105 18 163 1.6 4.8 0.00 0.03 0.00 90 1022.3
20260902144605 18 161 1.6 4.8 0.00 0.05 0.00 90 1022.7
20260902144106 18 161 0.0 3.2 0.00 0.05 0.00 90 1022.8
20260902143605 18 166 3.2 4.8 0.00 0.08 0.00 90 1022.6
20260902142605 18 174 0.0 3.2 0.00 0.10 0.00 90 1022.5
20260902142106 18 174 1.6 4.8 0.00 0.13 0.00 90 1022.6
20260902141605 18 174 0.0 4.8 0.00 0.13 0.00 90 1022.4
20260902141105 18 174 4.8 9.7 0.00 0.13 0.00 90 1022.3
20260902140605 18 164 4.8 9.7 0.00 0.15 0.00 91 1022.2
20260902140104 18 170 1.6 8.0 0.00 0.15 0.00 91 1022.3
20260902135604 18 156 1.6 4.8 0.00 0.15 0.00 91 1022.4
20260902135104 17 134 3.2 9.7 0.00 0.15 0.00 91 1022.5
20260902134605 17 146 0.0 4.8 0.00 0.15 0.00 91 1022.5
20260902134105 17 155 0.0 8.0 0.00 0.18 0.00 91 1022.6
20260902133605 17 171 1.6 8.0 0.00 0.18 0.00 91 1022.5
20260902133106 17 176 3.2 4.8 0.00 0.20 0.00 91 1022.4
20260902132105 17 176 1.6 4.8 0.00 0.23 0.00 92 1022.2
20260902131605 17 172 1.6 4.8 0.00 0.25 0.00 92 1022.1
20260902130605 17 157 3.2 12.9 0.00 0.28 0.00 92 1022.0
20260902130105 17 170 6.4 11.3 0.00 0.28 0.00 93 1021.8
20260902125605 17 141 6.4 12.9 0.00 0.28 0.00 93 1021.9
20260902124105 17 170 4.8 12.9 0.00 0.28 0.00 94 1022.0
20260902123605 17 163 4.8 14.5 0.00 0.28 0.00 94 1021.9
20260902123106 17 134 3.2 9.7 0.00 0.28 0.00 95 1021.9
20260902122606 17 142 3.2 4.8 0.00 0.28 0.00 95 1021.9
20260902122105 17 158 4.8 4.8 0.00 0.28 0.00 95 1021.6
20260902121604 17 218 1.6 8.0 0.00 0.28 0.00 95 1021.6
20260902121104 17 143 1.6 4.8 0.00 0.28 0.00 95 1021.5
20260902120605 17 128 0.0 4.8 0.00 0.28 0.00 95 1021.5
20260902115105 17 143 1.6 4.8 0.00 0.28 0.00 95 1021.5
20260902114605 17 144 1.6 9.7 0.00 0.28 0.00 95 1021.4
20260902114105 17 133 1.6 4.8 0.00 0.28 0.00 95 1021.5
20260902113604 17 130 0.0 4.8 0.00 0.28 0.00 95 1021.7
20260902113105 17 130 0.0 4.8 0.00 0.28 0.00 95 1021.7
20260902112606 17 130 0.0 3.2 0.00 0.30 0.00 95 1021.6
20260902111606 17 130 1.6 4.8 0.00 0.30 0.00 95 1021.7
20260902111105 17 131 1.6 4.8 0.00 0.30 0.00 95 1021.6
20260902110606 17 132 0.0 1.6 0.00 0.30 0.00 95 1021.7
20260902110105 17 132 1.6 4.8 0.00 0.30 0.00 95 1021.7
20260902105104 17 132 0.0 0.0 0.00 0.30 0.00 95 1021.5
20260902104605 17 132 0.0 1.6 0.00 0.33 0.00 95 1021.5
20260902104105 17 132 1.6 3.2 0.00 0.33 0.00 95 1021.6
20260902103605 17 132 0.0 1.6 0.00 0.33 0.00 95 1021.5
20260902102604 17 143 0.0 0.0 0.00 0.36 0.00 95 1021.4
20260902102105 17 143 0.0 4.8 0.00 0.36 0.00 95 1021.4
20260902101104 17 142 3.2 4.8 0.00 0.36 0.00 95 1021.2
20260902100605 17 74 0.0 0.0 0.00 0.36 0.00 95 1021.1
20260902100104 17 74 0.0 0.0 0.00 0.36 0.00 95 1021.1
20260902095605 17 74 0.0 3.2 0.00 0.36 0.00 95 1021.1
20260902095104 17 74 0.0 1.6 0.00 0.36 0.00 95 1021.0
20260902094606 17 74 0.0 3.2 0.00 0.36 0.00 95 1021.0
20260902094105 17 74 1.6 3.2 0.00 0.36 0.00 95 1021.0
20260902093605 17 74 0.0 3.2 0.00 0.36 0.00 95 1020.9
20260902093104 17 74 1.6 4.8 0.00 0.36 0.00 95 1020.8
20260902092605 17 74 1.6 4.8 0.00 0.36 0.00 94 1020.7
20260902092104 17 74 0.0 3.2 0.00 0.36 0.00 94 1020.8
20260902091605 17 74 0.0 3.2 0.00 0.36 0.00 94 1020.7
20260902090607 17 71 1.6 4.8 0.00 0.36 0.00 94 1020.6
20260902090106 17 65 1.6 4.8 0.00 0.36 0.00 94 1020.7
20260902085605 17 65 0.0 0.0 0.00 0.36 0.00 94 1020.7
20260902085104 18 65 1.6 3.2 0.00 0.36 0.00 94 1020.7
20260902084605 17 64 0.0 0.0 0.00 0.36 0.00 94 1020.7
20260902084105 18 64 0.0 3.2 0.00 0.36 0.00 94 1020.6
20260902083604 18 64 0.0 3.2 0.00 0.36 0.00 94 1020.6
20260902083105 18 65 1.6 4.8 0.00 0.36 0.00 94 1020.5
20260902082106 18 38 1.6 4.8 0.00 0.36 0.00 94 1020.4
20260902081106 18 81 4.8 4.8 0.00 0.36 0.00 93 1020.4
20260902080605 18 84 3.2 8.0 0.00 0.36 0.00 93 1020.3
20260902080106 18 78 1.6 4.8 0.00 0.36 0.00 93 1020.4
20260902075605 18 80 0.0 4.8 0.00 0.36 0.00 93 1020.4
20260902075104 18 80 1.6 4.8 0.00 0.36 0.00 93 1020.4
20260902074605 18 76 1.6 4.8 0.00 0.36 0.00 93 1020.4
20260902074105 18 77 1.6 4.8 0.00 0.36 0.00 93 1020.3
20260902073605 18 133 3.2 4.8 0.00 0.36 0.00 93 1020.3
20260902073104 18 96 3.2 4.8 0.00 0.36 0.00 93 1020.3
20260902072605 18 127 1.6 4.8 0.00 0.36 0.00 93 1020.2
20260902072104 18 147 0.0 1.6 0.00 0.36 0.00 93 1020.2
20260902071105 18 147 0.0 1.6 0.00 0.36 0.00 93 1020.3
20260902070604 18 147 0.0 0.0 0.00 0.36 0.00 93 1020.3
20260902070105 18 147 0.0 3.2 0.00 0.36 0.00 93 1020.4
20260902065604 18 147 1.6 4.8 0.00 0.36 0.00 93 1020.3
20260902064605 18 149 0.0 4.8 0.00 0.36 0.00 93 1020.3
20260902063605 18 149 1.6 4.8 0.00 0.36 0.00 93 1020.3
20260902063104 18 117 4.8 8.0 0.00 0.38 0.00 93 1020.3
20260902062105 18 135 3.2 4.8 0.00 0.38 0.00 93 1020.4
20260902061605 18 126 0.0 4.8 0.00 0.38 0.00 93 1020.4
20260902061105 18 110 1.6 4.8 0.00 0.38 0.00 93 1020.4
20260902060605 18 151 1.6 4.8 0.00 0.38 0.00 93 1020.4
20260902060104 18 151 3.2 4.8 0.00 0.38 0.00 93 1020.4
20260902055604 18 158 3.2 14.5 0.00 0.38 0.00 93 1020.5
20260902055104 18 135 8.0 14.5 0.00 0.41 0.00 93 1020.5
20260902054605 18 151 4.8 12.9 0.00 0.41 0.00 93 1020.6
20260902054106 18 170 1.6 12.9 0.00 0.43 0.00 93 1020.6
20260902053105 18 122 3.2 8.0 0.00 0.46 0.00 93 1020.5
20260902052604 18 137 3.2 9.7 0.00 0.51 0.00 93 1020.4
20260902052105 18 157 1.6 4.8 0.00 0.51 0.00 93 1020.4
20260902051105 18 157 1.6 3.2 0.00 0.56 0.00 93 1020.2
20260902050606 18 159 0.0 0.0 0.00 0.61 0.00 93 1020.3
20260902050104 18 159 0.0 4.8 0.00 0.69 0.00 93 1020.1
20260902045604 18 157 1.6 4.8 0.00 0.76 0.00 93 1020.1
20260902045105 18 176 0.0 4.8 0.00 0.81 0.00 93 1020.2
20260902044605 18 179 3.2 9.7 0.00 0.91 0.00 93 1020.2
20260902044104 18 174 3.2 4.8 0.00 1.02 0.00 93 1020.4
20260902043606 18 172 8.0 12.9 0.00 1.17 0.00 93 1020.4
20260902043105 18 175 1.6 8.0 0.00 1.19 0.00 93 1020.3
20260902042604 18 122 3.2 4.8 0.00 1.22 0.00 93 1020.3
20260902042105 18 170 1.6 4.8 0.00 1.24 0.00 93 1020.3
20260902041605 18 175 4.8 12.9 0.00 1.27 0.00 92 1020.1
20260902041105 18 130 1.6 4.8 0.00 1.32 0.00 92 1020.1
20260902040105 18 168 3.2 12.9 0.00 1.47 0.00 92 1019.8
20260902035604 18 179 4.8 8.0 0.00 1.50 1.50 92 1019.7
20260902035104 18 163 1.6 9.7 0.00 1.50 1.50 92 1019.6
20260902034106 18 127 3.2 4.8 0.00 1.52 1.50 92 1019.4
20260902033605 18 155 4.8 11.3 0.00 1.55 1.50 92 1019.2
20260902033106 18 174 8.0 12.9 0.00 1.57 1.50 92 1019.2
20260902032606 18 170 4.8 11.3 0.00 1.60 1.50 92 1019.1
20260902032105 18 196 4.8 11.3 0.00 1.60 1.50 91 1019.1
20260902031604 18 163 3.2 11.3 0.00 1.60 1.50 92 1019.1
20260902031105 18 177 4.8 16.1 0.00 1.60 1.50 91 1019.0
20260902030605 19 169 4.8 11.3 0.00 1.60 1.50 91 1018.9
20260902030104 19 169 6.4 12.9 0.00 1.60 1.50 91 1018.9
20260902025105 19 160 3.2 11.3 0.00 1.63 1.50 91 1018.6
20260902024605 19 149 3.2 12.9 0.00 1.63 1.50 91 1018.5
20260902024104 19 137 4.8 9.7 0.00 1.63 1.50 91 1018.5
20260902023604 19 157 3.2 9.7 0.00 1.63 1.50 91 1018.6
20260902023105 19 150 8.0 14.5 0.00 1.63 1.50 91 1018.6
20260902021605 20 185 4.8 12.9 0.00 1.63 1.50 91 1018.4
20260902021104 20 175 4.8 14.5 0.00 1.63 1.50 91 1018.5
20260902020104 20 151 3.2 9.7 0.00 1.63 1.50 91 1018.5
20260902015104 20 162 3.2 11.3 0.00 1.63 1.50 91 1018.4
20260902014605 20 157 8.0 12.9 0.00 1.63 1.50 91 1018.4
20260902014105 20 152 3.2 8.0 0.00 1.63 1.50 91 1018.4
20260902013106 20 152 1.6 4.8 0.00 1.63 1.50 91 1018.3
20260902012604 20 163 8.0 11.3 0.00 1.63 1.50 90 1018.2
20260902012104 20 158 6.4 12.9 0.00 1.63 1.50 90 1018.1
20260902011605 20 166 4.8 12.9 0.00 1.63 1.50 90 1017.9
20260902010604 20 178 3.2 12.9 0.00 1.63 1.50 90 1017.9
20260902010105 20 137 8.0 16.1 0.00 1.63 1.50 90 1017.7